Stations météo

Publicité
Chartres, France (7143): Température de l'air & dewpoint: 21.05.2019 05:00:00 - 27.05.2019 05:00:00 (CEST)Chartres, France (7143): Température de l'air 5cm: 21.05.2019 05:00:00 - 27.05.2019 05:00:00 (CEST)Chartres, France (7143): Température de l'air -20cm & Température de l'air -100cm: 21.05.2019 05:00:00 - 27.05.2019 05:00:00 (CEST)Chartres, France (7143): Vitesse du vent & gusts: 21.05.2019 05:00:00 - 27.05.2019 05:00:00 (CEST)Chartres, France (7143): Direction du vent: 21.05.2019 05:00:00 - 27.05.2019 05:00:00 (CEST)Chartres, France (7143): reduced air pressure: 21.05.2019 05:00:00 - 27.05.2019 05:00:00 (CEST)Chartres, France (7143): visibility: 21.05.2019 05:00:00 - 27.05.2019 05:00:00 (CEST)Chartres, France (7143): Ensoleillement: 21.05.2019 05:00:00 - 27.05.2019 05:00:00 (CEST)Chartres, France (7143): Quantités de précipitations: 21.05.2019 05:00:00 - 27.05.2019 05:00:00 (CEST)
Date & Time tt [°C] td [°C] tt 5cm [°C] tt -20cm [°C] tt -100cm [°C] ff [km/h] ff [knt] fx [km/h] fx [knt] dd ppp [hPa] vv [km] sd [min] rr [mm]
27.05.2019 05:00:00 14,2 12,6 13,8 16,2 13,5 5 3 18 10 W 1013,7 20 0 0,0
27.05.2019 04:00:00 14,3 12,3 14,0 16,2 13,5 6 4 13 7 W 1013,9 20 0 0,0
27.05.2019 03:00:00 14,5 12,4 14,1 16,3 13,5 4 2 12 7 W 1014,2 20 0 0,0
27.05.2019 02:00:00 14,6 12,3 14,3 16,4 13,5 5 3 11 6 W 1014,6 20 0 0,0
27.05.2019 01:00:00 14,7 12,2 14,3 16,4 13,5 4 2 11 6 WSW 1015,1 20 0 0,0
27.05.2019 00:00:00 15,0 12,3 14,5 16,5 13,5 6 3 13 7 W 1015,7 20 0 0,0
26.05.2019 23:00:00 15,1 12,2 14,6 16,5 13,5 4 2 14 8 W 1015,8 20 0 0,0
26.05.2019 22:00:00 15,5 12,1 15,0 16,6 13,5 7 4 15 8 W 1015,7 20 0 0,0
26.05.2019 21:00:00 15,8 12,7 15,5 16,6 13,5 7 4 19 11 WSW 1015,6 20 0 0,0
26.05.2019 20:00:00 15,7 12,6 14,5 16,5 13,5 10 6 19 10 WSW 1015,7 20 0 0,0
26.05.2019 19:00:00 15,2 12,7 14,6 16,5 13,5 11 6 25 14 W 1016,5 9 0 0,0
26.05.2019 18:00:00 16,0 11,8 16,7 16,4 13,4 8 4 30 16 W 1016,8 20 0 0,0
26.05.2019 17:00:00 17,0 11,5 17,1 16,3 13,4 12 6 27 15 W 1017,1 20 0 0,0
26.05.2019 16:00:00 16,7 11,6 17,6 16,2 13,4 14 8 29 15 W 1017,6 20 0 0,0
26.05.2019 15:00:00 17,0 11,5 18,0 16,0 13,4 13 7 27 15 W 1017,6 20 23 0,0
26.05.2019 14:00:00 17,3 11,6 19,8 15,8 13,4 8 4 24 13 WNW 1018,1 20 40 0,0
26.05.2019 13:00:00 15,2 10,6 19,5 15,7 13,4 12 7 23 12 WNW 1019,0 20 11 0,0
26.05.2019 12:00:00 14,8 11,2 17,7 15,6 13,4 9 5 22 12 W 1019,1 20 5 0,0
26.05.2019 11:00:00 13,7 11,2 14,4 15,6 13,4 8 4 19 10 W 1019,3 20 0 0,0
26.05.2019 10:00:00 12,0 10,7 13,9 15,6 13,4 8 4 15 8 WNW 1019,7 14 0 0,0
26.05.2019 09:00:00 11,7 11,1 14,3 15,7 13,4 8 5 16 9 W 1019,4 3,7 48 0,0
26.05.2019 08:00:00 12,0 11,1 9,2 15,8 13,4 6 3 10 5 W 1019,0 16 53 0,0
26.05.2019 07:00:00 10,0 9,8 7,5 16,0 13,4 4 2 6 3 SW 1018,9 9 13 0,0
26.05.2019 06:00:00 10,3 9,8 8,7 16,1 13,4 0 0 6 3 N 1019,4 12 0 0,0
26.05.2019 05:00:00 10,3 10,0 6,8 16,2 13,4 4 2 6 3 W 1019,5 10 0 0,0
26.05.2019 04:00:00 9,3 8,8 6,8 16,3 13,4 2 1 4 2 NW 1019,7 10 0 0,0
26.05.2019 03:00:00 10,4 9,8 7,4 16,5 13,4 0 0 6 3 N 1019,9 10 0 0,0
26.05.2019 02:00:00 10,8 9,4 7,8 16,5 13,3 2 1 6 4 WNW 1020,3 15 0 0,0
26.05.2019 01:00:00 12,3 10,9 9,3 16,7 13,4 5 3 9 5 NW 1020,5 20 0 0,0
26.05.2019 00:00:00 12,9 11,3 10,3 16,8 13,3 4 2 9 5 WNW 1020,7 20 0 0,2
25.05.2019 23:00:00 13,8 11,5 11,1 16,8 13,3 4 2 13 7 NNW 1020,4 20 0 0,0
25.05.2019 22:00:00 15,4 12,3 13,2 16,8 13,4 6 3 12 6 NNW 1019,7 20 0 0,2
25.05.2019 21:00:00 16,7 13,2 15,8 16,8 13,3 4 2 10 6 NNE 1019,0 8 0 1,0
25.05.2019 20:00:00 18,3 12,3 18,3 16,8 13,3 7 4 13 7 N 1018,7 20 22 0,0
25.05.2019 19:00:00 17,4 14,1 18,7 16,7 13,3 9 5 28 15 NNE 1018,5 17 9 0,0
25.05.2019 18:00:00 19,4 12,2 20,1 16,6 13,3 8 4 22 12 WNW 1018,1 20 15 0,0
25.05.2019 17:00:00 20,1 11,6 20,4 16,5 13,3 9 5 16 9 WNW 1018,5 20 12 0,0
25.05.2019 16:00:00 18,9 11,9 21,2 16,3 13,2 8 4 17 9 N 1018,7 20 3 0,0
25.05.2019 15:00:00 19,1 11,4 19,2 16,2 13,3 9 5 20 11 NW 1019,1 20 0 0,0
25.05.2019 14:00:00 18,8 10,6 19,5 16,0 13,3 9 5 19 11 NW 1019,5 20 23 0,0
25.05.2019 13:00:00 19,9 10,6 23,0 15,8 13,3 11 6 21 12 NW 1019,4 20 45 0,0
25.05.2019 12:00:00 19,0 11,8 24,0 15,7 13,2 3 2 13 7 W 1019,7 20 47 0,0
25.05.2019 11:00:00 16,5 12,1 17,8 15,7 13,2 5 3 10 5 NNW 1019,8 20 5 0,0
25.05.2019 10:00:00 14,2 11,4 15,6 15,7 13,2 6 3 10 6 N 1019,8 17 0 0,0
25.05.2019 09:00:00 13,3 11,4 13,5 15,8 13,2 5 3 14 8 NNW 1019,6 12 0 0,0
25.05.2019 08:00:00 11,9 10,3 10,0 15,9 13,2 6 4 14 8 N 1019,3 10 0 0,0
25.05.2019 07:00:00 10,3 8,9 7,1 16,0 13,2 4 2 6 4 NNW 1019,1 10 0 0,0
25.05.2019 06:00:00 10,0 8,3 7,9 16,1 13,2 0 0 10 5 N 1018,9 10 0 0,0
25.05.2019 05:00:00 10,5 8,8 9,2 16,3 13,2 5 3 10 6 NNW 1018,7 10 0 0,0
25.05.2019 04:00:00 10,7 8,8 9,7 16,4 13,2 5 3 17 9 N 1018,7 11 0 0,0
25.05.2019 03:00:00 11,3 9,0 10,4 16,5 13,2 8 4 24 13 NNW 1018,6 13 0 0,0
25.05.2019 02:00:00 12,4 9,2 12,0 16,6 13,2 11 6 27 15 NNW 1018,6 18 0 0,0
25.05.2019 01:00:00 13,0 9,4 12,6 16,6 13,2 9 5 24 13 NNW 1018,8 20 0 0,0
25.05.2019 00:00:00 13,8 9,2 13,1 16,7 13,2 10 5 23 13 NNW 1018,4 20 0 0,0
24.05.2019 23:00:00 15,2 10,0 14,3 16,8 13,2 10 6 22 12 NNW 1018,0 20 0 0,0
24.05.2019 22:00:00 16,3 9,5 15,4 16,8 13,1 9 5 21 11 NNW 1017,4 20 1 0,0
24.05.2019 21:00:00 17,3 10,2 16,7 16,8 13,2 9 5 23 13 N 1017,0 20 12 0,0
24.05.2019 20:00:00 19,1 11,1 20,9 16,8 13,1 12 6 27 15 NNW 1016,3 20 53 0,0
24.05.2019 19:00:00 18,7 11,3 20,4 16,7 13,1 11 6 26 14 NNW 1016,2 20 21 0,0
24.05.2019 18:00:00 19,5 11,5 22,7 16,5 13,1 14 7 26 14 NNW 1016,5 20 17 0,0
24.05.2019 17:00:00 19,8 11,0 24,0 16,4 13,1 8 4 29 16 NNW 1016,7 20 36 0,0
24.05.2019 16:00:00 19,9 8,9 24,0 16,3 13,1 9 5 22 12 NNW 1016,8 19 23 0,0
24.05.2019 15:00:00 19,3 10,3 23,1 16,1 13,1 12 6 22 12 N 1017,0 20 21 0,0
24.05.2019 14:00:00 18,5 11,6 22,8 15,9 13,1 6 3 15 8 NW 1017,4 20 0 0,0
24.05.2019 13:00:00 18,1 11,4 23,3 15,8 13,0 8 5 16 9 NW 1017,5 19 20 0,0
24.05.2019 12:00:00 18,0 11,1 21,1 15,8 13,0 4 2 14 7 N 1017,5 20 8 0,0
24.05.2019 11:00:00 15,9 9,1 18,0 15,8 13,0 8 4 17 9 N 1017,8 19 26 0,0
24.05.2019 10:00:00 14,4 9,2 15,5 15,9 13,1 7 4 16 9 N 1017,8 20 2 0,0
24.05.2019 09:00:00 13,2 9,4 13,4 15,9 13,0 8 4 14 7 N 1017,7 20 6 0,0
24.05.2019 08:00:00 12,5 10,4 13,3 16,0 13,1 6 3 16 9 N 1017,3 19 16 0,0
24.05.2019 07:00:00 12,8 11,9 11,9 16,1 13,0 8 4 13 7 NNW 1016,8 17 30 0,0
24.05.2019 06:00:00 12,7 11,4 11,6 16,2 13,1 5 3 10 5 WNW 1016,6 20 0 0,0
24.05.2019 05:00:00 13,0 11,4 11,7 16,2 13,0 4 2 6 3 WNW 1016,6 20 0 0,0
24.05.2019 04:00:00 13,4 11,3 12,2 16,3 13,0 3 2 5 3 NW 1016,7 20 0 0,0
24.05.2019 03:00:00 13,0 11,2 12,3 16,4 13,0 0 0 3 2 N 1016,6 19 0 0,0
24.05.2019 02:00:00 13,3 11,4 12,2 16,5 13,0 0 0 5 3 N 1016,8 20 0 0,0
24.05.2019 01:00:00 13,5 11,2 12,4 16,6 13,0 2 1 10 5 E 1017,0 20 0 0,0
24.05.2019 00:00:00 13,8 11,3 12,7 16,7 13,0 6 3 17 9 NNW 1017,4 20 0 0,0
23.05.2019 23:00:00 14,6 11,2 13,6 16,8 13,0 11 6 32 18 NNW 1017,6 20 0 0,0
23.05.2019 22:00:00 15,9 9,8 13,1 16,8 13,0 0 0 14 8 N 1017,0 20 5 0,0
23.05.2019 21:00:00 18,7 8,1 17,5 16,8 13,0 3 2 10 6 SSE 1016,5 20 5 0,0
23.05.2019 20:00:00 19,9 8,9 20,6 16,6 12,9 4 2 11 6 SE 1016,2 20 8 0,0
23.05.2019 19:00:00 20,6 7,9 22,4 16,5 13,0 6 3 13 7 ESE 1016,2 20 27 0,0
23.05.2019 18:00:00 21,7 7,1 26,3 16,3 13,0 6 4 15 8 E 1016,4 20 58 0,0
23.05.2019 17:00:00 21,8 6,8 24,7 16,1 13,0 5 3 15 8 SE 1016,9 19 35 0,0
23.05.2019 16:00:00 21,1 7,0 25,0 15,8 13,0 6 4 23 12 ENE 1017,1 20 44 0,0
23.05.2019 15:00:00 21,7 7,5 24,6 15,5 12,9 4 2 18 10 E 1017,5 20 50 0,0
23.05.2019 14:00:00 21,1 8,4 26,9 15,3 12,9 8 5 24 13 ESE 1017,9 20 57 0,0
23.05.2019 13:00:00 20,9 7,8 24,9 15,1 12,9 9 5 16 9 ESE 1018,5 20 53 0,0
23.05.2019 12:00:00 20,2 8,8 22,3 14,9 12,9 7 4 18 10 S 1018,7 19 35 0,0
23.05.2019 11:00:00 19,4 9,3 21,0 14,8 12,9 7 4 16 9 SSE 1018,9 20 41 0,0
23.05.2019 10:00:00 18,0 9,6 21,5 14,8 12,9 6 4 18 10 SSW 1018,9 17 56 0,0
23.05.2019 09:00:00 17,2 8,6 18,5 14,9 13,0 6 3 14 7 S 1018,9 20 60 0,0
23.05.2019 08:00:00 13,4 10,2 7,4 15,1 12,9 2 1 7 4 SSE 1019,1 19 49 0,0
23.05.2019 07:00:00 7,9 7,3 4,0 15,2 12,9 3 2 5 3 E 1019,4 19 18 0,0
23.05.2019 06:00:00 6,0 5,4 3,6 15,3 12,9 0 0 0 0 N 1019,5 18 0 0,0
23.05.2019 05:00:00 6,3 5,4 3,9 15,5 12,9 0 0 3 2 N 1019,7 19 0 0,2
23.05.2019 04:00:00 7,1 6,2 4,5 15,6 12,9 0 0 4 2 N 1019,9 20 0 0,0
23.05.2019 03:00:00 7,6 6,5 4,9 15,8 12,9 0 0 3 1 N 1019,9 20 0 0,0
23.05.2019 02:00:00 9,4 8,2 5,7 15,9 12,9 3 1 8 4 N 1020,1 20 0 0,0
23.05.2019 01:00:00 9,3 7,6 6,0 16,0 12,9 0 0 4 2 N 1020,2 20 0 0,0
23.05.2019 00:00:00 10,5 8,3 7,2 16,2 12,9 0 0 3 2 N 1020,3 20 0 0,0
22.05.2019 23:00:00 11,6 8,4 8,3 16,2 12,9 2 1 4 2 E 1020,5 20 0 0,0
22.05.2019 22:00:00 13,9 9,1 10,8 16,2 12,9 0 0 4 2 N 1020,3 20 9 0,0
22.05.2019 21:00:00 18,4 8,1 18,2 16,1 12,9 0 0 6 4 N 1019,7 20 41 0,0
22.05.2019 20:00:00 19,4 7,2 22,1 16,0 12,9 4 2 8 4 E 1019,8 20 60 0,0
22.05.2019 19:00:00 19,3 6,7 22,3 15,9 12,9 6 3 11 6 ESE 1019,7 20 51 0,0
22.05.2019 18:00:00 20,1 6,8 25,1 15,6 12,9 3 1 14 8 E 1019,8 20 58 0,0
22.05.2019 17:00:00 20,4 6,3 25,9 15,4 12,9 3 2 15 8 ENE 1020,2 20 60 0,0
22.05.2019 16:00:00 20,4 9,3 23,9 15,2 12,9 5 3 18 10 NNE 1020,3 20 50 0,0
22.05.2019 15:00:00 20,0 8,0 21,4 14,9 12,9 5 3 21 11 ENE 1020,6 20 36 0,0
22.05.2019 14:00:00 18,7 7,2 21,3 14,7 12,9 4 2 16 9 N 1020,9 20 30 0,0
22.05.2019 13:00:00 18,7 8,1 21,7 14,5 12,9 5 3 12 6 WNW 1021,0 18 21 0,0
22.05.2019 12:00:00 17,9 7,9 22,0 14,3 12,8 2 1 10 5 S 1021,1 20 47 0,0
22.05.2019 11:00:00 17,5 9,1 22,9 14,3 12,9 3 2 8 5 E 1021,0 20 58 0,0
22.05.2019 10:00:00 16,0 11,0 20,6 14,3 12,9 3 1 8 4 ENE 1021,0 19 60 0,0
22.05.2019 09:00:00 13,1 9,2 16,9 14,3 12,8 4 2 6 4 N 1021,1 20 60 0,0
22.05.2019 08:00:00 10,9 8,8 6,9 14,5 12,9 4 2 7 4 N 1020,9 14 48 0,0
22.05.2019 07:00:00 7,7 7,1 4,9 14,6 12,9 3 2 6 3 NNW 1021,1 9 12 0,0
22.05.2019 06:00:00 7,4 6,8 5,1 14,7 12,9 4 2 7 4 NNW 1021,0 8 0 0,0
22.05.2019 05:00:00 8,0 7,1 4,7 14,8 12,8 5 3 9 5 NNW 1020,9 12 0 0,0
22.05.2019 04:00:00 7,8 7,2 4,8 15,0 12,8 4 2 6 4 NW 1020,8 10 0 0,0
22.05.2019 03:00:00 7,6 6,5 5,0 15,1 12,8 0 0 5 3 N 1020,8 11 0 0,0
22.05.2019 02:00:00 9,5 8,1 6,4 15,2 12,8 4 2 9 5 NW 1020,5 15 0 0,0
22.05.2019 01:00:00 10,3 9,1 7,9 15,3 12,8 5 3 9 5 NNW 1020,4 19 0 0,0
22.05.2019 00:00:00 11,7 10,8 8,3 15,3 12,8 3 2 6 3 NW 1020,3 11 0 0,0
21.05.2019 23:00:00 12,2 11,3 9,4 15,4 12,8 4 2 6 4 W 1020,1 14 0 0,0
21.05.2019 22:00:00 13,6 11,8 10,8 15,4 12,8 4 2 6 3 WNW 1019,7 20 7 0,0
21.05.2019 21:00:00 16,0 11,4 16,4 15,3 12,8 0 0 9 5 N 1019,1 20 54 0,0
21.05.2019 20:00:00 16,3 11,4 16,4 15,3 12,8 4 2 18 10 ENE 1018,6 20 46 0,0
21.05.2019 19:00:00 15,0 12,3 14,3 15,2 12,8 9 5 25 13 NE 1018,6 19 0 2,2
21.05.2019 18:00:00 14,6 11,9 14,5 15,1 12,8 19 10 40 22 N 1018,8 9 3 0,6
21.05.2019 17:00:00 18,5 10,3 19,4 14,8 12,8 12 7 24 13 WNW 1017,9 20 12 0,0
21.05.2019 16:00:00 19,2 9,7 21,9 14,5 12,8 11 6 24 13 NW 1017,6 20 39 0,0
21.05.2019 15:00:00 19,4 11,4 25,6 14,3 12,8 9 5 21 11 N 1017,6 20 50 0,0
21.05.2019 14:00:00 17,9 10,8 22,6 14,1 12,8 10 5 22 12 N 1017,9 20 22 0,0
21.05.2019 13:00:00 17,8 11,4 22,5 14,0 12,8 11 6 28 15 NNW 1018,0 18 57 0,0
21.05.2019 12:00:00 15,9 10,9 15,9 14,0 12,8 9 5 15 8 N 1018,1 20 0 0,0
21.05.2019 11:00:00 13,6 10,6 13,3 14,0 12,8 5 3 11 6 NW 1018,2 16 0 0,0
21.05.2019 10:00:00 13,2 10,2 13,7 14,1 12,8 6 4 11 6 N 1017,9 13 0 0,2
21.05.2019 09:00:00 12,4 10,5 12,9 14,1 12,8 6 3 17 9 NNW 1017,5 9 14 0,0
21.05.2019 08:00:00 11,1 9,7 8,6 14,2 12,8 9 5 18 10 NNW 1016,9 4,5 47 0,0
21.05.2019 07:00:00 8,8 8,2 7,2 14,3 12,8 6 4 14 8 NNW 1016,7 3,2 0 0,0
21.05.2019 06:00:00 8,5 7,6 6,9 14,4 12,8 8 4 13 7 NNW 1016,5 7 0 0,0
21.05.2019 05:00:00 8,5 7,4 6,9 14,5 12,8 7 4 15 8 NNW 1016,1 12 0 0,0

tt = Température de l'air
td = dewpoint
tt 5cm = Température de l'air 5cm
tt -20cm = Température de l'air -20cm
tt -100cm = Température de l'air -100cm
ff = Vitesse du vent
fx = gusts
dd = Direction du vent
ppp = reduced air pressure
vv = visibility
sd = Ensoleillement
rr = Quantités de précipitations

stations d'obs. à proximité